Flag for Germany Weather past 2 weeks in Schleswig, Schleswig-Holstein, Germany

Now
33 °F

Passing clouds.


Feels Like: 30 °F
Forecast: 25 / 31 °F
Wind: 3 mph from Southwest

Location: Schleswig

Current Time: Feb 1, 2015 at 6:05:52 PM

Latest Report: Feb 1, 2015 at 5:00 PM


Visibility: 9 mi

Pressure: 29.15 "Hg

Humidity: 99%

Dew point: 33 °F

Location of SchleswigLocation

Historic Weather in Schleswig — Graph

°F

Schleswig temperature yesterday

Maximum temperature yesterday: 33 °F (at 2:00 PM)
Minimum temperature yesterday: 20 °F (at 2:00 AM)
Average temperature yesterday: 27 °F

Past Weeks' High & Low Weather Summary

 TemperatureHumidityPressure
High42 °F (Jan 27, 1:00 PM)100% (Jan 19, 6:00 AM)30.31 "Hg (Jan 19, 6:00 AM)
Low18 °F (Feb 1, 6:00 AM)76% (Jan 27, 3:00 PM)28.70 "Hg (Jan 30, 2:00 AM)
Average31 °F98%29.71 "Hg
* Reported Jan 17 5:00 PM — Feb 1 5:00 PM, Schleswig, Weather by CustomWeather, © 2014

Note: Actual official high and low records may vary slightly from our data, if they occured in-between our weather recording intervals... More about our weather records

Advertising

Schleswig weather history for previous 24 hours

 ConditionsComfort  
Time TempWeatherWind HumidityBarometerVisibility
5:00 PM
Feb 1
33 °FPassing clouds.3 mph99%29.15 "Hg9 mi
3:00 PM33 °FSnow flurries. Overcast.3 mph100%29.12 "Hg4 mi
2:00 PM33 °FPartly sunny.3 mph100%29.12 "Hg3 mi
1:00 PM31 °FLight snow. Overcast.2 mph100%29.12 "Hg1 mi
12:00 PM30 °FFog.2 mph100%29.15 "Hg1 mi
11:00 AM25 °FFog.2 mph100%29.12 "Hg2 mi
9:00 AM21 °FPartly sunny.1 mph98%29.12 "Hg5 mi
8:00 AM20 °FPassing clouds.1 mph97%29.09 "Hg6 mi
7:00 AM18 °FPassing clouds.1 mph97%29.09 "Hg7 mi
6:00 AM18 °FPassing clouds.1 mph97%29.09 "Hg7 mi
5:00 AM18 °FPassing clouds.1 mph97%29.09 "Hg6 mi
3:00 AM18 °FFog.1 mph97%29.06 "Hg4 mi
2:00 AM19 °FFog.1 mph97%29.06 "Hg2 mi
1:00 AM20 °FFog.1 mph98%29.06 "Hg1 mi
12:00 AM20 °FFog.2 mph98%29.03 "Hg2 mi
11:00 PM
Jan 31
21 °FFog.1 mph98%29.03 "Hg1 mi
9:00 PM23 °FFog.1 mph99%29.03 "Hg0 mi
8:00 PM25 °FFog.1 mph99%29.00 "Hg0 mi
7:00 PM26 °FFog.1 mph100%29.00 "Hg0 mi
6:00 PM28 °FFog.1 mph100%28.97 "Hg1 mi
Weather by CustomWeather, © 2014

See weather overviewHow to use our weather pages